Marrakech, Morocco

1:17 AM WET on January 18, 2018 (GMT +0000)
Marrakech

Weather History for GMMX - June, 2014

Change the Weather History Date:

Monday, June 30, 2014

  Actual Average Record
Temperature  
Mean Temperature 93 °F -  
Max Temperature 102 °F 96 °F 111 °F (2004)
Min Temperature 82 °F 66 °F 59 °F (1997)
Cooling Degree Days 28    
Growing Degree Days 43 (Base 50)    
Moisture  
Dew Point 46 °F    
Average Humidity 19    
Maximum Humidity 35    
Minimum Humidity 6    
Precipitation  
Precipitation 0.00 in 0.00 in - ()
Sea Level Pressure  
Sea Level Pressure 30.04 in    
Wind  
Wind Speed 5 mph ()    
Max Wind Speed 13 mph    
Max Gust Speed -    
Visibility 6.0 miles    
Events      
Averages and records for this station are not official NWS values.
T = Trace of Precipitation, MM = Missing Value Source: Averaged Metar Reports

Daily Weather History Graph

Daily Weather History Graph

Search for Another Location

Airport or City:

Trip Planner

Search our weather history database for the weather conditions in past years. The results will help you decide how hot, cold, wet, or windy it might be!

Date:

Astronomy

Jun. 30, 2014 Rise Set
Actual Time 5:30 AM WET 7:41 PM WET
Civil Twilight 5:02 AM WET 8:09 PM WET
Nautical Twilight 4:27 AM WET 8:43 PM WET
Astronomical Twilight 3:51 AM WET 9:20 PM WET
Moon 8:18 AM WET (6/30) 9:40 PM WET (6/30)
Length of Visible Light 15h 07m
Length of Day
14h 11m
Waxing Crescent, 9% of the Moon is Illuminated
Jun 30
Waxing Crescent
Jul 5
First Quarter
Jul 12
Full
Jul 19
Last Quarter
Jul 26
New

Hourly Weather History & Observations

Time (WET) Temp. Heat Index Dew Point Humidity Pressure Visibility Wind Dir Wind Speed Gust Speed Precip Events Conditions
10:00 AM 86.0 °F 84.5 °F 55.4 °F 35% 30.09 in - NNE 5.8 mph - N/A   Clear
10:30 AM 87.8 °F 86.1 °F 55.4 °F 33% 30.09 in - Variable 4.6 mph - N/A   Clear
11:00 AM 91.4 °F - 51.8 °F 26% 30.09 in - NNW 5.8 mph - N/A   Clear
11:30 AM 93.2 °F 90.8 °F 53.6 °F 26% 30.09 in - Variable 4.6 mph - N/A   Clear
12:00 PM 95 °F - 53 °F 16% 29.96 in 6 mi NW 4.6 mph - -  
12:00 PM 95.0 °F 92.7 °F 53.6 °F 25% 30.09 in - NW 5.8 mph - N/A   Clear
12:30 PM 96.8 °F - 50.0 °F 20% 30.06 in - NNW 5.8 mph - N/A   Clear
1:00 PM 96.8 °F - 50.0 °F 20% 30.06 in - West 4.6 mph - N/A   Clear
2:00 PM 100.4 °F - 44.6 °F 15% 30.06 in - Variable 4.6 mph - N/A   Clear
2:30 PM 100.4 °F - 44.6 °F 15% 30.04 in - WNW 5.8 mph - N/A   Clear
3:00 PM 101 °F - 45 °F 8% 29.91 in 6 mi WNW 5.8 mph - -  
3:00 PM 100.4 °F - 44.6 °F 15% 30.04 in - NW 6.9 mph - N/A   Clear
3:30 PM 102.2 °F - 42.8 °F 13% 30.04 in - NW 6.9 mph - N/A   Clear
4:00 PM 102.2 °F - 42.8 °F 13% 30.04 in - NNW 6.9 mph - N/A   Clear
4:30 PM 102.2 °F - 42.8 °F 13% 30.01 in - NW 5.8 mph - N/A   Clear
5:00 PM 102.2 °F - 42.8 °F 13% 30.01 in - Variable 4.6 mph - N/A   Clear
5:30 PM 102.2 °F - 39.2 °F 11% 30.01 in - NNW 4.6 mph - N/A   Clear
6:00 PM 101 °F - 39 °F 6% 29.88 in 6 mi NNW 6.9 mph - -  
6:00 PM 102.2 °F - 39.2 °F 11% 30.01 in - North 6.9 mph - N/A   Clear
6:30 PM 100.4 °F - 39.2 °F 12% 30.01 in - North 4.6 mph - N/A   Clear
7:00 PM 100.4 °F - 35.6 °F 11% 30.04 in - NNW 6.9 mph - N/A   Clear
7:30 PM 98.6 °F - 32.0 °F 10% 30.04 in - North 8.1 mph - N/A   Clear
8:00 PM 96.8 °F - 32.0 °F 10% 30.04 in - North 6.9 mph - N/A   Clear
8:30 PM 93.2 °F - 46.4 °F 20% 30.04 in - North 10.4 mph - N/A   Clear
9:00 PM 89 °F - 50 °F 17% 29.96 in 6 mi NNE 12.7 mph - -  
9:00 PM 89.6 °F - 50.0 °F 26% 30.06 in - NNE 12.7 mph - N/A   Clear
9:30 PM 87.8 °F - 51.8 °F 29% 30.06 in - NNE 11.5 mph - N/A   Clear
10:00 PM 86.0 °F - 51.8 °F 31% 30.06 in - NNE 6.9 mph - N/A   Clear
10:30 PM 84.2 °F - 51.8 °F 33% 30.06 in - NE 5.8 mph - N/A   Clear
11:00 PM 84.2 °F - 50.0 °F 30% 30.09 in - Calm Calm - N/A   Clear
11:30 PM 82.4 °F - 51.8 °F 35% 30.09 in - Variable 3.5 mph - N/A   Clear